Location: Buchberg
(46.9333°N, 15.8500°E)
Time: 09:57:41
(UTC+00:00)

Cosmos 2369 - Pass Details

Date: 14 July 2020
Orbit: 839 x 857 km, 71.0° (Epoch: 07 August)

Event Time Altitude Azimuth Distance (km) Brightness Sun altitude
Rises 01:40:03 0° 328° (NNW) 3,435 7.2 -12.8°
Reaches altitude 10° 01:42:35 10° 323° (NW) 2,496 6.3 -12.5°
Maximum altitude 01:48:02 46° 252° (WSW) 1,138 4.0 -12.0°
Drops below altitude 10° 01:53:27 10° 180° (S) 2,483 5.7 -11.4°
Enters shadow 01:54:53 - 176° (S) 3,005 6.1 -11.2°
